• In Deutschland
  • Länderverzeichnis
  • Für 7 Tage
  • Wassertemperatur
  • Satellitenkarten
  • Wetterkarte
  • Widgets
  • user-avatar
    Anmelden

    Stündliche Wetter Bad Rippoldsau-Schapbach

    Heute, 18 Oktober, Mittwoch

    Zeit Temperatur Niederschläge Wind Luftdruck Luftfeuchtigkeit
    00:00 +11°C° 0 mm 1 m/S 702 mmHg 61%
    01:00 +11°C° 0 mm 1 m/S 702 mmHg 60%
    02:00 +11°C° 0 mm 1 m/S 702 mmHg 59%
    03:00 +10°C° 0 mm 1 m/S 702 mmHg 58%
    04:00 +10°C° 0 mm 1 m/S 702 mmHg 58%
    05:00 +10°C° 0 mm 1 m/S 701 mmHg 57%
    06:00 +10°C° 0 mm 1 m/S 701 mmHg 57%
    07:00 +10°C° 0 mm 1 m/S 701 mmHg 57%
    08:00 +12°C° 0 mm 1 m/S 701 mmHg 54%
    09:00 +14°C° 0 mm 1 m/S 702 mmHg 51%
    10:00 +16°C° 0 mm 1 m/S 702 mmHg 48%
    11:00 +18°C° 0 mm 1 m/S 702 mmHg 46%
    12:00 +19°C° 0 mm 1 m/S 702 mmHg 43%
    13:00 +21°C° 0 mm 1 m/S 702 mmHg 40%
    14:00 +20°C° 0 mm 1 m/S 701 mmHg 44%
    15:00 +20°C° 0 mm 1 m/S 701 mmHg 48%
    16:00 +19°C° 0 mm 1 m/S 701 mmHg 52%
    17:00 +16°C° 0 mm 1 m/S 700 mmHg 57%
    18:00 +14°C° 0 mm 1 m/S 700 mmHg 61%
    19:00 +12°C° 0 mm 1 m/S 700 mmHg 66%
    20:00 +11°C° 0 mm 1 m/S 700 mmHg 68%
    21:00 +11°C° 0 mm 1 m/S 700 mmHg 70%
    22:00 +10°C° 0 mm 1 m/S 700 mmHg 71%
    23:00 +10°C° 0 mm 1 m/S 699 mmHg 72%

    Morgen, 19 Oktober, Donnerstag

    Zeit Temperatur Niederschläge Wind Luftdruck Luftfeuchtigkeit
    00:00 +10°C° 0 mm 1 m/S 699 mmHg 73%
    01:00 +10°C° 0 mm 1 m/S 699 mmHg 73%
    02:00 +9°C° 0 mm 1 m/S 699 mmHg 73%
    03:00 +9°C° 0 mm 1 m/S 699 mmHg 74%
    04:00 +9°C° 0 mm 1 m/S 699 mmHg 74%
    05:00 +9°C° 0 mm 1 m/S 698 mmHg 74%
    06:00 +9°C° 0 mm 1 m/S 698 mmHg 74%
    07:00 +9°C° 0 mm 1 m/S 698 mmHg 73%
    08:00 +11°C° 0 mm 1 m/S 699 mmHg 68%
    09:00 +13°C° 0 mm 1 m/S 699 mmHg 63%
    10:00 +15°C° 0 mm 1 m/S 700 mmHg 58%
    11:00 +16°C° 0 mm 1 m/S 700 mmHg 53%
    12:00 +19°C° 0 mm 1 m/S 700 mmHg 49%
    13:00 +20°C° 0 mm 1 m/S 700 mmHg 45%
    14:00 +20°C° 0 mm 1 m/S 699 mmHg 49%
    15:00 +19°C° 0 mm 1 m/S 699 mmHg 53%
    16:00 +19°C° 0 mm 1 m/S 699 mmHg 57%
    17:00 +16°C° 0 mm 1 m/S 699 mmHg 63%
    18:00 +14°C° 0 mm 1 m/S 698 mmHg 68%
    19:00 +12°C° 0 mm 1 m/S 698 mmHg 74%
    20:00 +12°C° 0 mm 1 m/S 698 mmHg 76%
    21:00 +11°C° 0 mm 1 m/S 698 mmHg 79%
    22:00 +10°C° 0 mm 1 m/S 698 mmHg 81%
    23:00 +10°C° 0 mm 1 m/S 698 mmHg 80%

    übermorgen, 20 Oktober, Freitag

    Zeit Temperatur Niederschläge Wind Luftdruck Luftfeuchtigkeit
    00:00 +10°C° 0 mm 1 m/S 699 mmHg 80%
    01:00 +10°C° 0 mm 1 m/S 699 mmHg 80%
    02:00 +10°C° 0 mm 1 m/S 699 mmHg 79%
    03:00 +10°C° 0 mm 1 m/S 699 mmHg 79%
    04:00 +9°C° 0 mm 1 m/S 699 mmHg 78%
    05:00 +9°C° 0 mm 1 m/S 699 mmHg 77%
    06:00 +9°C° 0 mm 1 m/S 699 mmHg 76%
    07:00 +9°C° 0 mm 1 m/S 699 mmHg 74%
    08:00 +11°C° 0 mm 1 m/S 700 mmHg 69%
    09:00 +13°C° 0 mm 1 m/S 700 mmHg 64%
    10:00 +15°C° 0 mm 1 m/S 701 mmHg 58%
    11:00 +16°C° 0 mm 2 m/S 701 mmHg 55%
    12:00 +18°C° 0 mm 2 m/S 701 mmHg 51%
    13:00 +19°C° 0 mm 2 m/S 701 mmHg 48%
    14:00 +18°C° 0 mm 2 m/S 701 mmHg 51%
    15:00 +18°C° 0 mm 2 m/S 701 mmHg 54%
    16:00 +18°C° 0 mm 2 m/S 701 mmHg 58%
    17:00 +16°C° 0 mm 2 m/S 701 mmHg 63%
    18:00 +14°C° 0 mm 1 m/S 701 mmHg 69%
    19:00 +12°C° 0 mm 1 m/S 701 mmHg 74%
    20:00 +12°C° 0 mm 1 m/S 701 mmHg 76%
    21:00 +12°C° 0 mm 1 m/S 701 mmHg 78%
    22:00 +11°C° 0 mm 1 m/S 701 mmHg 79%
    23:00 +10°C° 0 mm 2 m/S 701 mmHg 80%

    21 Oktober, Samstag

    Zeit Temperatur Niederschläge Wind Luftdruck Luftfeuchtigkeit
    00:00 +10°C° 0 mm 2 m/S 701 mmHg 80%
    01:00 +10°C° 0 mm 2 m/S 701 mmHg 80%
    02:00 +10°C° 0 mm 2 m/S 701 mmHg 79%
    03:00 +10°C° 0 mm 2 m/S 701 mmHg 78%
    04:00 +10°C° 0 mm 2 m/S 700 mmHg 76%
    05:00 +10°C° 0 mm 2 m/S 700 mmHg 75%
    06:00 +10°C° 0 mm 2 m/S 700 mmHg 75%
    07:00 +10°C° 0 mm 2 m/S 700 mmHg 74%
    08:00 +13°C° 0 mm 2 m/S 701 mmHg 68%
    09:00 +13°C° 0 mm 3 m/S 701 mmHg 63%
    10:00 +16°C° 0 mm 3 m/S 701 mmHg 57%
    11:00 +17°C° 0 mm 3 m/S 701 mmHg 56%
    12:00 +17°C° 0 mm 4 m/S 701 mmHg 56%
    13:00 +18°C° 0 mm 4 m/S 701 mmHg 55%
    14:00 +17°C° 0,1 mm 3 m/S 701 mmHg 62%
    15:00 +16°C° 0,1 mm 3 m/S 701 mmHg 69%
    16:00 +14°C° 0,1 mm 3 m/S 701 mmHg 76%
    17:00 +14°C° 0,4 mm 2 m/S 702 mmHg 80%
    18:00 +13°C° 0,4 mm 2 m/S 702 mmHg 85%
    19:00 +12°C° 0,4 mm 2 m/S 702 mmHg 90%
    20:00 +12°C° 0,4 mm 2 m/S 702 mmHg 89%
    21:00 +10°C° 0,4 mm 2 m/S 702 mmHg 88%
    22:00 +10°C° 0,4 mm 2 m/S 702 mmHg 87%
    23:00 +9°C° 0,5 mm 2 m/S 702 mmHg 88%

    22 Oktober, Sonntag

    Zeit Temperatur Niederschläge Wind Luftdruck Luftfeuchtigkeit
    00:00 +9°C° 0,5 mm 3 m/S 702 mmHg 88%
    01:00 +9°C° 0,5 mm 3 m/S 702 mmHg 89%
    02:00 +8°C° 0,8 mm 3 m/S 702 mmHg 90%
    03:00 +8°C° 0,8 mm 3 m/S 703 mmHg 90%
    04:00 +8°C° 0,8 mm 3 m/S 703 mmHg 91%
    05:00 +7°C° 0,3 mm 3 m/S 703 mmHg 91%
    06:00 +7°C° 0,3 mm 3 m/S 703 mmHg 91%
    07:00 +7°C° 0,3 mm 3 m/S 703 mmHg 90%
    08:00 +7°C° 0,1 mm 3 m/S 703 mmHg 87%
    09:00 +6°C° 0,1 mm 4 m/S 704 mmHg 83%
    10:00 +7°C° 0,1 mm 4 m/S 704 mmHg 80%
    11:00 +7°C° 0,1 mm 4 m/S 704 mmHg 77%
    12:00 +8°C° 0,1 mm 4 m/S 704 mmHg 73%
    13:00 +8°C° 0,1 mm 4 m/S 705 mmHg 70%
    14:00 +8°C° 0,1 mm 4 m/S 705 mmHg 70%
    15:00 +8°C° 0,1 mm 4 m/S 705 mmHg 69%
    16:00 +7°C° 0,1 mm 4 m/S 705 mmHg 69%
    17:00 +7°C° 0 mm 3 m/S 705 mmHg 73%
    18:00 +5°C° 0 mm 3 m/S 705 mmHg 77%
    19:00 +5°C° 0 mm 2 m/S 706 mmHg 81%
    20:00 +5°C° 0 mm 2 m/S 706 mmHg 82%
    21:00 +4°C° 0 mm 2 m/S 706 mmHg 83%
    22:00 +4°C° 0 mm 2 m/S 707 mmHg 85%
    23:00 +4°C° 0 mm 2 m/S 707 mmHg 86%

    23 Oktober, Montag

    Zeit Temperatur Niederschläge Wind Luftdruck Luftfeuchtigkeit
    00:00 +4°C° 0 mm 2 m/S 707 mmHg 86%
    01:00 +3°C° 0 mm 2 m/S 707 mmHg 87%
    02:00 +3°C° 0 mm 2 m/S 707 mmHg 88%
    03:00 +3°C° 0 mm 2 m/S 707 mmHg 88%
    04:00 +3°C° 0 mm 2 m/S 707 mmHg 88%
    05:00 +2°C° 0 mm 2 m/S 707 mmHg 89%
    06:00 +2°C° 0 mm 2 m/S 707 mmHg 89%
    07:00 +2°C° 0 mm 2 m/S 707 mmHg 89%
    08:00 +4°C° 0 mm 2 m/S 708 mmHg 82%
    09:00 +6°C° 0 mm 2 m/S 708 mmHg 74%
    10:00 +8°C° 0 mm 2 m/S 709 mmHg 67%
    11:00 +9°C° 0 mm 2 m/S 708 mmHg 63%
    12:00 +10°C° 0 mm 2 m/S 708 mmHg 60%
    13:00 +12°C° 0 mm 2 m/S 708 mmHg 56%
    14:00 +12°C° 0 mm 2 m/S 707 mmHg 57%
    15:00 +12°C° 0 mm 1 m/S 707 mmHg 59%
    16:00 +12°C° 0 mm 1 m/S 707 mmHg 61%
    17:00 +11°C° 0 mm 1 m/S 706 mmHg 65%
    18:00 +9°C° 0 mm 1 m/S 706 mmHg 69%
    19:00 +7°C° 0 mm 1 m/S 706 mmHg 73%
    20:00 +7°C° 0 mm 1 m/S 706 mmHg 73%
    21:00 +7°C° 0 mm 1 m/S 706 mmHg 73%
    22:00 +7°C° 0 mm 1 m/S 706 mmHg 73%
    23:00 +7°C° 0 mm 1 m/S 706 mmHg 72%
    Mehr zeigen